Location: Demmingen
(48.6757°N, 10.4375°E)
Time: 21:39:54
(UTC+00:00)

Cosmos 2082 Rocket - Pass Details

Date: 23 May 2024
Orbit: 832 x 853 km, 71.0° (Epoch: 14 June)

Event Time Altitude Azimuth Distance (km) Brightness Sun altitude
Exits shadow 01:48:51 - 257° (WSW) 2,604 4.3 -12.7°
Reaches altitude 10° 01:49:15 10° 260° (W) 2,484 4.2 -12.6°
Maximum altitude 01:53:58 26° 316° (NW) 1,629 3.8 -12.1°
Drops below altitude 10° 01:58:42 10° 12° (NNE) 2,492 5.7 -11.7°
Sets 02:01:36 0° 25° (NNE) 3,430 7.1 -11.4°
